Terminal Aerodrome Forecast
Issued by NWS

Home | Current Version | Previous Version | Text Only | Print | Product List | Glossary On
Versions: 1 2 3 4 5 6 7 8 9 10 11 12 13 14 15 16 17
348
FTUS45 KABQ 010729 AAA
TAFGUP
TAF AMD
KGUP 010729Z 0107/0206 07012G18KT 6SM -RA OVC030
      TEMPO 0108/0112 3SM -RASN BR OVC015
     FM011500 14013G22KT P6SM VCSH OVC025
     FM011900 12012G20KT P6SM VCSH BKN040 BKN070=

USA.gov is the U.S. government's official web portal to all federal, state and local government web resources and services.